TimeMST,TemperatureF,Dew PointF,Humidity,Sea Level PressureIn,VisibilityMPH,Wind Direction,Wind SpeedMPH,Gust SpeedMPH,PrecipitationIn,Events,Conditions,WindDirDegrees,DateUTC
12:15 AM,1.4,-9.4,61,30.18,10.0,Calm,Calm,-,N/A,,Overcast,0,2013-02-04 07:15:00
12:35 AM,3.2,3.2,100,30.18,10.0,Calm,Calm,-,N/A,,Overcast,0,2013-02-04 07:35:00
12:55 AM,5.0,1.4,85,30.19,10.0,South,5.8,-,N/A,,Scattered Clouds,190,2013-02-04 07:55:00
1:15 AM,3.2,-4.0,72,30.19,10.0,Calm,Calm,-,N/A,,Mostly Cloudy,0,2013-02-04 08:15:00
1:35 AM,5.0,5.0,100,30.19,10.0,SW,4.6,-,N/A,,Mostly Cloudy,230,2013-02-04 08:35:00
1:55 AM,5.0,-2.2,72,30.19,10.0,Calm,Calm,-,N/A,,Overcast,0,2013-02-04 08:55:00
2:15 AM,6.8,1.4,79,30.19,10.0,Calm,Calm,-,N/A,,Overcast,0,2013-02-04 09:15:00
3:55 AM,6.8,-0.4,72,30.20,10.0,Calm,Calm,-,N/A,,Scattered Clouds,0,2013-02-04 10:55:00
4:15 AM,5.0,-0.4,78,30.20,10.0,Calm,Calm,-,N/A,,Partly Cloudy,0,2013-02-04 11:15:00
4:35 AM,5.0,3.2,92,30.20,10.0,Calm,Calm,-,N/A,,Partly Cloudy,0,2013-02-04 11:35:00
4:55 AM,3.2,-4.0,72,30.20,10.0,Calm,Calm,-,N/A,,Mostly Cloudy,0,2013-02-04 11:55:00
5:15 AM,5.0,5.0,100,30.20,10.0,Calm,Calm,-,N/A,,Overcast,0,2013-02-04 12:15:00
5:55 AM,8.6,1.4,73,30.20,10.0,NNE,4.6,-,N/A,,Overcast,20,2013-02-04 12:55:00
6:15 AM,8.6,6.8,92,30.21,10.0,North,5.8,-,N/A,,Overcast,360,2013-02-04 13:15:00
6:35 AM,8.6,1.4,73,30.21,10.0,Calm,Calm,-,N/A,,Overcast,0,2013-02-04 13:35:00
6:55 AM,8.6,3.2,79,30.21,10.0,Calm,Calm,-,N/A,,Overcast,0,2013-02-04 13:55:00
7:15 AM,8.6,3.2,79,30.22,10.0,NNW,3.5,-,N/A,,Overcast,330,2013-02-04 14:15:00
7:35 AM,6.8,1.4,79,30.22,10.0,Calm,Calm,-,N/A,,Overcast,0,2013-02-04 14:35:00
8:15 AM,8.6,3.2,79,30.23,10.0,NNW,3.5,-,N/A,,Overcast,340,2013-02-04 15:15:00
8:35 AM,8.6,3.2,79,30.24,9.0,Calm,Calm,-,N/A,,Overcast,0,2013-02-04 15:35:00
9:15 AM,10.4,6.8,85,30.25,10.0,Calm,Calm,-,N/A,,Overcast,0,2013-02-04 16:15:00
9:35 AM,12.2,8.6,85,30.25,10.0,Calm,Calm,-,N/A,,Overcast,0,2013-02-04 16:35:00
9:55 AM,12.2,8.6,85,30.25,10.0,Calm,Calm,-,N/A,,Overcast,0,2013-02-04 16:55:00
10:15 AM,12.2,6.8,79,30.25,10.0,Calm,Calm,-,N/A,,Overcast,0,2013-02-04 17:15:00
10:35 AM,12.2,8.6,85,30.25,10.0,Calm,Calm,-,N/A,,Overcast,0,2013-02-04 17:35:00
10:55 AM,14.0,8.6,79,30.24,4.0,Calm,Calm,-,N/A,,Overcast,0,2013-02-04 17:55:00
11:15 AM,15.8,10.4,79,30.23,10.0,Calm,Calm,-,N/A,,Overcast,0,2013-02-04 18:15:00
11:35 AM,17.6,14.0,86,30.22,10.0,Calm,Calm,-,N/A,,Overcast,0,2013-02-04 18:35:00
11:55 AM,17.6,12.2,79,30.21,10.0,Calm,Calm,-,N/A,,Overcast,0,2013-02-04 18:55:00
12:15 PM,19.4,12.2,74,30.20,10.0,Calm,Calm,-,N/A,,Overcast,0,2013-02-04 19:15:00
12:35 PM,19.4,10.4,68,30.18,10.0,ESE,3.5,-,N/A,,Overcast,110,2013-02-04 19:35:00
12:55 PM,19.4,12.2,74,30.18,10.0,SE,4.6,-,N/A,,Overcast,140,2013-02-04 19:55:00
1:35 PM,19.4,14.0,80,30.16,10.0,East,3.5,-,N/A,,Clear,90,2013-02-04 20:35:00
1:55 PM,21.2,12.2,68,30.15,10.0,East,3.5,-,N/A,,Clear,90,2013-02-04 20:55:00
2:15 PM,21.2,14.0,74,30.15,10.0,East,4.6,-,N/A,,Clear,100,2013-02-04 21:15:00
2:35 PM,21.2,15.8,80,30.14,10.0,SE,3.5,-,N/A,,Clear,130,2013-02-04 21:35:00
3:15 PM,21.2,14.0,74,30.14,10.0,ESE,4.6,-,N/A,,Clear,120,2013-02-04 22:15:00
3:35 PM,23.0,15.8,74,30.14,10.0,Calm,Calm,-,N/A,,Clear,0,2013-02-04 22:35:00
3:55 PM,23.0,15.8,74,30.14,10.0,Calm,Calm,-,N/A,,Clear,0,2013-02-04 22:55:00
4:15 PM,23.0,15.8,74,30.14,10.0,Calm,Calm,-,N/A,,Clear,0,2013-02-04 23:15:00
4:35 PM,23.0,12.2,63,30.13,10.0,Calm,Calm,-,N/A,,Clear,0,2013-02-04 23:35:00
4:55 PM,21.2,12.2,68,30.13,10.0,Calm,Calm,-,N/A,,Clear,0,2013-02-04 23:55:00
5:15 PM,21.2,12.2,68,30.13,10.0,Calm,Calm,-,N/A,,Clear,0,2013-02-05 00:15:00
5:35 PM,21.2,15.8,80,30.14,10.0,Calm,Calm,-,N/A,,Clear,0,2013-02-05 00:35:00
5:55 PM,17.6,10.4,73,30.14,10.0,Calm,Calm,-,N/A,,Clear,0,2013-02-05 00:55:00
6:15 PM,17.6,12.2,79,30.15,10.0,NNW,3.5,-,N/A,,Clear,330,2013-02-05 01:15:00
6:35 PM,17.6,8.6,68,30.16,10.0,Calm,Calm,-,N/A,,Clear,0,2013-02-05 01:35:00
6:55 PM,15.8,8.6,73,30.16,10.0,Calm,Calm,-,N/A,,Clear,0,2013-02-05 01:55:00
7:15 PM,12.2,1.4,62,30.16,10.0,Calm,Calm,-,N/A,,Clear,0,2013-02-05 02:15:00
7:35 PM,12.2,6.8,79,30.17,10.0,ENE,4.6,-,N/A,,Clear,70,2013-02-05 02:35:00
7:55 PM,12.2,10.4,92,30.18,10.0,NE,3.5,-,N/A,,Clear,40,2013-02-05 02:55:00
8:35 PM,10.4,6.8,85,30.18,10.0,NNE,3.5,-,N/A,,Clear,30,2013-02-05 03:35:00
8:55 PM,6.8,1.4,79,30.18,10.0,Calm,Calm,-,N/A,,Clear,0,2013-02-05 03:55:00
9:15 PM,6.8,3.2,85,30.19,10.0,Calm,Calm,-,N/A,,Clear,0,2013-02-05 04:15:00
9:35 PM,6.8,3.2,85,30.19,10.0,Calm,Calm,-,N/A,,Clear,0,2013-02-05 04:35:00
9:55 PM,8.6,3.2,79,30.19,10.0,Calm,Calm,-,N/A,,Clear,0,2013-02-05 04:55:00
10:15 PM,6.8,1.4,79,30.19,9.0,Calm,Calm,-,N/A,,Clear,0,2013-02-05 05:15:00
10:35 PM,3.2,1.4,92,30.18,10.0,Calm,Calm,-,N/A,,Clear,0,2013-02-05 05:35:00
10:55 PM,5.0,1.4,85,30.19,10.0,East,4.6,-,N/A,,Clear,90,2013-02-05 05:55:00
11:15 PM,3.2,-5.8,66,30.20,10.0,Calm,Calm,-,N/A,,Clear,0,2013-02-05 06:15:00
11:35 PM,5.0,5.0,100,30.21,10.0,Calm,Calm,-,N/A,,Clear,0,2013-02-05 06:35:00
11:55 PM,1.4,-9.4,61,30.20,10.0,SSE,3.5,-,N/A,,Clear,150,2013-02-05 06:55:00